Date String (YYYY-MM-DD hh:mm:ss) UTC,Instrument flags,Ambient pressure (hPa),Sample flow (lpm),Bypass flow (lpm),Sample temperature (°C),Ambient temperature (°C),ASC tube jacket temperature (°C),LED temperature (°C),Box temperature (°C),Sample RH (%),Span deviation,Mass concentration (μg/m³),Mass concentration (μg/m³),Mass concentration (μg/m³)
DateTimeUTC,F1_M11,P_M11,Q1_M11,Q2_M11,T1_M11,T2_M11,T3_M11,T4_M11,T5_M11,U1_M11,ZSPAN_M11,X0_M11,X2_M11,X1_M11
2022-05-11 03:00:00,,0823.1,5.00,0.00,29.3,28.6,00.0,38.4,31.0,12.2,0000.0,0020.11,0005.13,0002.27
2022-05-11 03:01:00,,0823.1,5.00,0.00,29.3,28.6,00.0,38.3,31.1,12.1,0000.0,0019.75,0005.11,0002.29
2022-05-11 03:02:00,,0823.1,4.99,0.00,29.3,28.6,00.0,38.3,31.1,12.0,0000.0,0020.13,0005.15,0002.29
2022-05-11 03:03:00,,0823.0,5.00,0.00,29.3,28.6,00.0,38.3,31.0,12.0,0000.0,0021.54,0005.20,0002.30
2022-05-11 03:04:00,,0823.1,5.00,0.00,29.3,28.6,00.0,38.3,31.1,12.0,0000.0,0021.48,0005.20,0002.29
2022-05-11 03:05:00,,0823.1,5.01,0.00,29.3,28.6,00.0,38.3,31.1,12.0,0000.0,0022.13,0005.15,0002.29
2022-05-11 03:06:00,,0823.2,5.01,0.00,29.3,28.6,00.0,38.3,31.1,12.0,0000.0,0022.64,0005.11,0002.28
2022-05-11 03:07:00,,0823.2,5.00,0.00,29.3,28.6,00.0,38.3,31.1,12.1,0000.0,0022.41,0005.10,0002.31
2022-05-11 03:08:00,,0823.2,4.99,0.00,29.3,28.6,00.0,38.3,31.0,12.4,0000.0,0023.26,0005.13,0002.33
2022-05-11 03:09:00,,0823.2,5.01,0.00,29.3,28.6,00.0,38.3,31.0,12.4,0000.0,0022.59,0005.18,0002.34
2022-05-11 03:10:00,,0823.2,4.99,0.00,29.3,28.6,00.0,38.3,31.1,12.6,0000.0,0021.88,0005.14,0002.35
2022-05-11 03:11:00,,0823.2,5.00,0.00,29.3,28.6,00.0,38.3,31.0,12.7,0000.0,0023.26,0005.23,0002.36
2022-05-11 03:12:00,,0823.3,5.00,0.00,29.3,28.6,00.0,38.3,31.0,12.7,0000.0,0023.35,0005.22,0002.34
2022-05-11 03:13:00,,0823.2,5.00,0.00,29.3,28.6,00.0,38.3,31.0,12.7,0000.0,0022.77,0005.20,0002.33
2022-05-11 03:14:00,,0823.2,5.00,0.00,29.3,28.6,00.0,38.3,31.0,12.8,0000.0,0021.15,0005.20,0002.34
2022-05-11 03:15:00,,0823.2,4.99,0.00,29.2,28.6,00.0,38.3,31.0,12.8,0000.0,0021.38,0005.16,0002.37
2022-05-11 03:16:00,,0823.2,5.00,0.00,29.2,28.6,00.0,38.3,31.0,12.8,0000.0,0021.07,0005.16,0002.39
2022-05-11 03:17:00,,0823.2,5.00,0.00,29.2,28.6,00.0,38.3,31.0,12.8,0000.0,0020.60,0005.25,0002.43
2022-05-11 03:18:00,,0823.3,5.01,0.00,29.2,28.6,00.0,38.3,31.0,12.9,0000.0,0020.67,0005.25,0002.42
2022-05-11 03:19:00,,0823.4,5.01,0.00,29.2,28.5,00.0,38.3,31.0,12.7,0000.0,0019.61,0005.22,0002.41
2022-05-11 03:20:00,,0823.3,5.00,0.00,29.2,28.5,00.0,38.3,31.0,12.7,0000.0,0019.28,0005.15,0002.41
2022-05-11 03:21:00,,0823.4,4.98,0.00,29.2,28.5,00.0,38.3,31.0,12.8,0000.0,0018.37,0005.15,0002.40
2022-05-11 03:22:00,,0823.3,5.01,0.00,29.2,28.5,00.0,38.3,31.0,13.1,0000.0,0017.78,0005.11,0002.40
2022-05-11 03:23:00,,0823.4,4.99,0.00,29.2,28.5,00.0,38.2,31.0,13.2,0000.0,0017.95,0005.21,0002.43
2022-05-11 03:24:00,,0823.4,4.99,0.00,29.2,28.5,00.0,38.2,31.0,13.2,0000.0,0018.21,0005.19,0002.46
2022-05-11 03:25:00,,0823.4,5.00,0.00,29.2,28.5,00.0,38.2,31.0,13.1,0000.0,0018.54,0005.15,0002.45
2022-05-11 03:26:00,,0823.4,5.00,0.00,29.2,28.4,00.0,38.2,31.0,13.2,0000.0,0018.66,0005.16,0002.41
2022-05-11 03:27:00,,0823.3,4.99,0.00,29.2,28.4,00.0,38.2,31.0,13.3,0000.0,0018.79,0005.21,0002.41
2022-05-11 03:28:00,,0823.3,5.00,0.00,29.2,28.4,00.0,38.2,31.0,13.3,0000.0,0019.44,0005.13,0002.41
2022-05-11 03:29:00,,0823.4,5.00,0.00,29.2,28.4,00.0,38.2,30.9,13.3,0000.0,0019.52,0005.12,0002.40
2022-05-11 03:30:00,,0823.3,5.00,0.00,29.2,28.4,00.0,38.2,30.9,13.3,0000.0,0019.57,0005.14,0002.39
2022-05-11 03:31:00,,0823.4,4.99,0.00,29.2,28.4,00.0,38.2,30.9,13.3,0000.0,0020.31,0005.17,0002.40
2022-05-11 03:32:00,,0823.3,5.00,0.00,29.2,28.4,00.0,38.2,30.9,13.3,0000.0,0020.68,0005.24,0002.39
2022-05-11 03:33:00,,0823.3,5.01,0.00,29.1,28.5,00.0,38.2,30.9,13.3,0000.0,0020.94,0005.38,0002.42
2022-05-11 03:34:00,,0823.3,5.01,0.00,29.2,28.5,00.0,38.2,30.9,13.4,0000.0,0020.74,0005.30,0002.42
2022-05-11 03:35:00,,0823.4,4.99,0.00,29.2,28.5,00.0,38.2,30.9,13.4,0000.0,0021.17,0005.33,0002.41
2022-05-11 03:36:00,,0823.4,5.00,0.00,29.2,28.5,00.0,38.2,30.9,13.5,0000.0,0020.69,0005.36,0002.43
2022-05-11 03:37:00,,0823.4,5.00,0.00,29.1,28.5,00.0,38.2,30.9,13.4,0000.0,0020.57,0005.37,0002.45
2022-05-11 03:38:00,,0823.4,5.01,0.00,29.2,28.5,00.0,38.2,30.9,13.5,0000.0,0019.92,0005.31,0002.44
2022-05-11 03:39:00,,0823.4,5.01,0.00,29.1,28.5,00.0,38.2,30.9,13.5,0000.0,0019.47,0005.29,0002.43
2022-05-11 03:40:00,,0823.4,5.00,0.00,29.1,28.5,00.0,38.2,30.9,13.5,0000.0,0018.82,0005.32,0002.44
2022-05-11 03:41:00,,0823.4,5.00,0.00,29.1,28.5,00.0,38.2,30.9,13.5,0000.0,0018.73,0005.26,0002.43
2022-05-11 03:42:00,,0823.3,4.99,0.00,29.1,28.4,00.0,38.2,30.9,13.4,0000.0,0018.07,0005.26,0002.42
2022-05-11 03:43:00,,0823.4,5.01,0.00,29.1,28.4,00.0,38.2,30.9,13.5,0000.0,0017.75,0005.22,0002.42
2022-05-11 03:44:00,,0823.4,5.00,0.00,29.1,28.4,00.0,38.2,30.9,13.3,0000.0,0016.79,0005.05,0002.40
2022-05-11 03:45:00,,0823.3,5.01,0.00,29.1,28.4,00.0,38.2,30.9,13.3,0000.0,0017.04,0005.04,0002.37
2022-05-11 03:46:00,,0823.4,5.01,0.00,29.1,28.3,00.0,38.1,30.9,13.4,0000.0,0017.54,0005.01,0002.34
2022-05-11 03:47:00,,0823.4,5.00,0.00,29.1,28.4,00.0,38.1,30.9,13.4,0000.0,0018.78,0005.03,0002.33
2022-05-11 03:48:00,,0823.5,5.00,0.00,29.1,28.4,00.0,38.1,30.9,13.4,0000.0,0018.26,0005.04,0002.31
2022-05-11 03:49:00,,0823.5,5.00,0.00,29.1,28.4,00.0,38.1,30.8,13.5,0000.0,0018.89,0005.01,0002.29
2022-05-11 03:50:00,,0823.6,5.00,0.00,29.1,28.4,00.0,38.1,30.8,13.5,0000.0,0018.54,0004.96,0002.24
2022-05-11 03:51:00,,0823.6,5.01,0.00,29.1,28.4,00.0,38.1,30.8,13.5,0000.0,0019.14,0004.95,0002.23
2022-05-11 03:52:00,,0823.6,5.00,0.00,29.1,28.4,00.0,38.1,30.8,13.5,0000.0,0019.42,0004.96,0002.23
2022-05-11 03:53:00,,0823.6,5.00,0.00,29.1,28.4,00.0,38.1,30.8,13.5,0000.0,0019.93,0004.96,0002.23
2022-05-11 03:54:00,,0823.5,4.99,0.00,29.1,28.4,00.0,38.1,30.8,13.6,0000.0,0020.26,0004.92,0002.22
2022-05-11 03:55:00,,0823.5,5.00,0.00,29.1,28.4,00.0,38.1,30.8,13.5,0000.0,0020.76,0004.91,0002.23
2022-05-11 03:56:00,,0823.4,5.00,0.00,29.1,28.3,00.0,38.1,30.8,13.5,0000.0,0020.27,0004.91,0002.23
2022-05-11 03:57:00,,0823.4,5.00,0.00,29.0,28.3,00.0,38.1,30.8,13.5,0000.0,0018.89,0004.89,0002.23
2022-05-11 03:58:00,,0823.4,5.00,0.00,29.0,28.2,00.0,38.1,30.8,13.6,0000.0,0017.01,0004.82,0002.24
2022-05-11 03:59:00,,0823.4,4.99,0.00,29.0,28.2,00.0,38.1,30.8,13.5,0000.0,0016.16,0004.74,0002.24
